Location: Ariel
(45.9570°N, 122.5700°W)
Time: 15:28:03
(UTC-07:00)

Transit 4A - Pass Details

Date: 22 July 2019
Orbit: 863 x 981 km, 66.8° (Epoch: 24 August)

Event Time Altitude Azimuth Distance (km) Brightness Sun altitude
Exits shadow 04:42:44 - 267° (W) 3,415 10.4 -9.0°
Reaches altitude 10° 04:45:10 10° 280° (W) 2,733 10.0 -8.7°
Maximum altitude 04:49:55 21° 328° (NNW) 2,043 9.8 -8.1°
Drops below altitude 10° 04:54:40 10° 16° (NNE) 2,738 11.3 -7.5°
Sets 04:57:58 0° 32° (NNE) 3,678 12.7 -7.0°
